User: anonymous   Login
Location: Brno
(49.2000°N, 16.6330°E)
Time: 03:12:10
(UTC+02:00)
Language:

Cosmos 1603 - Orbit

View from above orbital plane
View from above orbital plane
View from above satellite
View from above satellite

Ground track
Ground track

The orbit data is extracted from the following two-line orbital elements,

1 15333U 84106A   15247.55899134  .00000316  00000-0  19054-3 0  9999
2 15333  71.0280  16.8083 0018120 122.1269 310.7767 14.14009446596156
Epoch (UTC): 04 September 2015 13:24:56
Eccentricity: 0.0018120
inclination: 71.0280°
perigee height: 832 km
apogee height: 859 km
right ascension of ascending node: 16.8083°
argument of perigee: 122.1269°
revolutions per day: 14.14009446
mean anomaly at epoch: 310.7767°
orbit number at epoch: 59615

The dashed part of the orbit path shows where the satellite is in the earth's shadow,  

DLR